Regional Weather Roundup
Issued by NWS

Home | Current Version | Previous Version | Graphics & Text | Print | Product List | Glossary On
Versions: 1 2 3 4 5 6 7 8 9 10 11 12 13 14 15 16 17 18 19 20 21 22 23 24 25 26 27 28 29 30 31 32 33 34 35 36 37 38 39 40 41 42 43 44 45 46 47 48 49 50
000
ASUS43 KFSD 040810
RWRSD

WEATHER ROUNDUP FOR SOUTH DAKOTA
NATIONAL WEATHER SERVICE SIOUX FALLS SD
300 AM CDT WED MAY 04 2016

NOTE: "FAIR" INDICATES FEW OR NO CLOUDS BELOW 12,000 FEET WITH NO
SIGNIFICANT WEATHER AND/OR OBSTRUCTIONS TO VISIBILITY.


SDZ001>005-009-010-012>017-040900-
NORTHWEST AND NORTH CENTRAL SOUTH DAKOTA

CITY           SKY/WX    TMP DP  RH WIND       PRES   REMARKS
BUFFALO          N/A     57  37  47 W5        30.06S
FAITH            N/A     54  37  52 N5        30.11R
MOBRIDGE       CLEAR     42  32  67 N5        30.07R
$$

SDZ012>016-024>037-041>051-057-063-072>074-040900-
SOUTHWEST AND SOUTH CENTRAL SOUTH DAKOTA

CITY           SKY/WX    TMP DP  RH WIND       PRES   REMARKS
RAPID CTY ARPT CLEAR     47  37  68 NW9       30.12S
PIERRE         CLEAR     46  33  60 NE5       30.07R
CUSTER         CLEAR     42  31  64 CALM      30.22S
ELLSWORTH AFB  CLEAR     47  38  72 NW6       30.12S
PHILIP         CLEAR     42  39  89 W7        30.10R
PINE RIDGE     CLEAR     40  35  83 E3        30.14R
WINNER         FAIR      48  39  71 N3        30.08R
$$

SDZ004>011-016>023-039-040-040900-
NORTHEAST SOUTH DAKOTA

CITY           SKY/WX    TMP DP  RH WIND       PRES   REMARKS
ABERDEEN       CLEAR     41  31  67 N9        30.05R
WATERTOWN      CLEAR     38  30  73 N6        30.00R
BROOKINGS      CLEAR     41  31  67 CALM      29.99R
SISSETON         N/A     44  31  60 N12       30.00R
$$

SDZ017-020-022-023-036>040-048>070-040900-
SOUTHEAST SOUTH DAKOTA

CITY           SKY/WX    TMP DP  RH WIND       PRES   REMARKS
SIOUX FALLS    CLEAR     47  32  56 N13       29.97R
HURON          CLEAR     38  32  79 NW7       30.03R
CHAMBERLAIN    CLEAR     54  32  43 NE7       30.06R
MITCHELL       CLEAR     47  36  65 N9        30.03R
YANKTON        CLEAR     45  36  70 NW10      29.99R
$$

ABBREVIATIONS USED IN REMARKS
   TC - TEMPERATURE IN CELSIUS
  WCI - WIND CHILL INDEX
   HX - HEAT INDEX
  VSB - VISIBILITY




USA.gov is the U.S. government's official web portal to all federal, state and local government web resources and services.